Regional Weather Roundup
Issued by NWS

Home | Current Version | Previous Version | Text Only | Print | Product List | Glossary Off
Versions: 1 2 3 4 5 6 7 8 9 10 11 12 13 14 15 16 17 18 19 20 21 22 23 24 25 26 27 28 29 30 31 32 33 34 35 36 37 38 39 40 41 42 43 44 45 46 47 48 49 50

000
ASUS43 KMKX 242121
RWRWI

WISCONSIN REGIONAL WEATHER ROUNDUP
NATIONAL WEATHER SERVICE MILWAUKEE/SULLIVAN WI
400 PM CDT SUN JUL 24 2016

NOTE: "FAIR" INDICATES FEW OR NO CLOUDS BELOW 12,000 FEET WITH NO
SIGNIFICANT WEATHER AND/OR OBSTRUCTIONS TO VISIBILITY.

WIZ001-002-006>008-014>016-023>028-242200-
NORTHWEST WISCONSIN

CITY           SKY/WX    TMP DP  RH WIND       PRES   REMARKS
SUPERIOR ARPT  MOSUNNY   82  62  50 W15       29.82R HX  83
ASHLAND        SUNNY     84  62  47 W13G23    29.81R HX  85
HAYWARD        SUNNY     81  61  50 NW9       29.85S HX  82
SIREN          SUNNY     81  61  50 W10G21    29.88R HX  81
CUMBERLAND     SUNNY     79  55  44 W15G22    29.89R
RICE LAKE      SUNNY     80  61  53 W10G16    29.89R HX  81
CHETEK         MOSUNNY   82  65  57 W10G17    29.87R HX  84
LADYSMITH      PTSUNNY   83  65  54 W10       29.87R HX  84
EAU CLAIRE     MOSUNNY   85  64  49 W14G22    29.86R HX  86
MENOMONIE      MOSUNNY   84  61  45 W15       29.88R HX  84
NEW RICHMOND   MOSUNNY   82  60  46 NW12      29.91R HX  83
OSCEOLA        SUNNY     82  61  48 W12       29.93R HX  83
$$

WIZ003>005-009-010-017-018-242200-
NORTH CENTRAL WISCONSIN

CITY           SKY/WX    TMP DP  RH WIND       PRES   REMARKS
MANITOWISH WTR PTSUNNY   82  64  54 W12G17    29.83S HX  83
ARBOR VITAE    SUNNY     82  64  53 W10G16    29.84S HX  84
WOODRUFF       SUNNY     82  64  53 W10G16    29.84S HX  84
RHINELANDER    MOSUNNY   82  62  50 W14       29.85R HX  83
EAGLE RIVER    MOSUNNY   80  60  50 W9        29.83S HX  81
LAND O LAKES   MOSUNNY   80  62  53 W9        29.84R HX  81
PHILLIPS       CLOUDY    80  66  63 NW5       29.84S HX  82
TOMAHAWK       MOSUNNY   82  63  52 W10       29.85S HX  83
MEDFORD        CLOUDY    81  66  59 W9G18     29.86S HX  83
MERRILL        MOSUNNY   83  66  57 W12       29.85R HX  85
$$

WIZ029-030-035-036-043>047-242200-
CENTRAL WISCONSIN

CITY           SKY/WX    TMP DP  RH WIND       PRES   REMARKS
WAUSAU         SUNNY     84  62  47 W15       29.83R HX  85
MOSINEE        MOSUNNY  N/A  66   0 W10G18    29.85S HX  80
MARSHFIELD     SUNNY     83  65  54 W13       29.86R HX  85
STEVENS POINT  SUNNY     83  65  53 W12G17    29.84S HX  85
WAUPACA        MOSUNNY   90  71  53 W12       29.82S HX  95
WAUTOMA        MOSUNNY   88  76  67 W12       29.82S HX  99
WISC RAPIDS    MOSUNNY   88  65  46 NW12      29.86R HX  90
CAMP DOUGLAS   SUNNY     86  69  56 W10       29.85R HX  89
$$

WIZ011>013-019>022-031-037>040-048>050-242200-
NORTHEAST WISCONSIN

CITY           SKY/WX    TMP DP  RH WIND       PRES   REMARKS
ANTIGO         MOSUNNY   82  68  61 W13       29.84S HX  85
SHAWANO        MOSUNNY   86  75  68 W13       29.80S HX  95
OCONTO         CLOUDY    83  83 100 W9        29.77F HX  98
STURGEON BAY   CLOUDY    78  74  87 S6        29.79S HX  81
GREEN BAY      MOSUNNY   84  78  82 W16G24    29.79R HX  95
MANITOWOC      MOSUNNY   80  74  81 S9        29.80S HX  85
APPLETON       PTSUNNY   86  72  62 NW13      29.80R HX  92
CLINTONVILLE   MOSUNNY   86  70  58 W9        29.80F HX  90
OSHKOSH        MOSUNNY   89  76  65 W9G17     29.80R HX 100
$$

WIZ032>034-041-042-053>061-242200-
SOUTHWEST WISCONSIN

CITY           SKY/WX    TMP DP  RH WIND       PRES   REMARKS
LA CROSSE      SUNNY     89  65  44 W9        29.86R HX  91
SPARTA         SUNNY     87  66  49 W9        29.87R HX  89
VIROQUA        SUNNY     84  66  53 W8        29.90R HX  86
BOSCOBEL       SUNNY     90  71  53 W8        29.86R HX  96
PRAIRIE DU CHI CLOUDY    86  63  45 NW7       29.88R HX  87
PLATTEVILLE    MOSUNNY   86  81  84 W7        29.88R HX 102
$$

WIZ056-057-062-063-064-067-068-242200-
SOUTH CENTRAL WISCONSIN

CITY           SKY/WX    TMP DP  RH WIND       PRES   REMARKS
REEDSBURG      SUNNY     87  74  63 NW12G17   29.84S HX  95
BARABOO/DELLS  MOSUNNY   87  70  56 W12       29.84S HX  92
LONE ROCK      MOSUNNY   89  74  60 NW10      29.85R HX  98
MINERAL POINT  PTSUNNY   88  79  74 W9        29.88S HX 102
MADISON        PTSUNNY   89  77  67 VRB7      29.83S HX 101
MIDDLETON      MOSUNNY   90  77  64 W9        29.85F HX 102
WATERTOWN      PTSUNNY   90  80  72 SW9       29.82S HX 108
MONROE         MOSUNNY   88  79  74 W12G21    29.87R HX 102
JANESVILLE     MOSUNNY   93  77  59 SW12      29.84S HX 107
$$

WIZ051-052-058>065-066-070>072-242200-
SOUTHEAST WISCONSIN

CITY           SKY/WX    TMP DP  RH WIND       PRES   REMARKS
MILWAUKEE      CLOUDY    90  79  70 S16G22    29.81S HX 106
WAUKESHA       NOT AVBL
MILWAUKEE/TIMM NOT AVBL
RACINE         CLOUDY    83  74  74 SW14G20   29.85R THUNDER HX  89
BURLINGTON     CLOUDY    91  79  67 W8        29.83R HX 107
KENOSHA        CLOUDY    82  68  62 E5        29.85R THUNDER HX  85
FOND DU LAC    MOSUNNY   90  78  68 W13G21    29.81R HX 104
SHEBOYGAN      MOSUNNY   83  75  77 S5        29.79F HX  90
WEST BEND      PTSUNNY   90  77  66 W13       29.81F HX 102
JUNEAU         PTSUNNY   87  78  76 W13G20    29.84R HX 100
$$

LSZ147-162-242200-
LAKE SUPERIOR

STATION/POSITION TIME  TEMP    WIND        PRES    WAVE
                       AIR SEA DIR/SP/G            HT/PER
                 (UTC) (F)     (DEG/KT/KT) (MB)    (FT/S)
W MID LAKE BUOY  2050   67 58  240/ 16/ 17 1006.4F   2/ 3
DEVILS ISLAND    2100   69     240/ 19/ 21 1008.2R
PORT WING        1940   77     250/ 12/ 18 1009.5
SAXON HARBOR     2040   81     290/ 12/ 19 1008.5S
$$

LMZ867-665-643>646-242200-
LAKE MICHIGAN

STATION/POSITION TIME  TEMP    WIND        PRES    WAVE
                       AIR SEA DIR/SP/G            HT/PER
                 (UTC) (F)     (DEG/KT/KT) (MB)    (FT/S)
CHAMBERS ISLAND  2000   75     190/  3/  8 1007.8F
S GREEN BAY BUOY 2100   77 75  190/  6/  6   N/A
N MID LAKE BUOY  2050   70 68  210/ 16/ 19 1007.5F   3/ 6
NORTHPORT PIER   2000   75     170/  3/  7 1008.1
KEWAUNEE LAKESHO 2100   62     170/  8/ 12 1008.2F
SHEBOYGAN LAKESH 2100   70     170/ 20/ 21 1008.8F
PORT WASHINGTON  2040   71     180/  4/  6 1010.2F
MILWAUKEE LAKESH 2110          230/ 14/ 20   N/A
S MID LAKE BUOY  2050   76 72  170/ 16/ 16 1009.1F   3/ 5
KENOSHA   LAKESH 2100   79     270/  4/ 30 1010.5R
$$

TC  - TEMPERATURE IN CELSIUS
VSB - VISIBILITY IN STATUTE MILES
WCI - WIND CHILL INDEX
HX  - HEAT INDEX





USA.gov is the U.S. government's official web portal to all federal, state and local government web resources and services.